Hourly Weather Biaroza

Today, 20 September, Sunday

Time Temperature Precipitation Wind Pressure Humidity
00:00 +10°C° 0 mm 2 mps 753 mmHg 86%
01:00 +11°C° 0 mm 1 mps 753 mmHg 90%
02:00 +11°C° 0 mm 1 mps 753 mmHg 93%
03:00 +11°C° 0 mm 1 mps 753 mmHg 94%
04:00 +10°C° 0 mm 1 mps 753 mmHg 94%
05:00 +10°C° 0 mm 1 mps 754 mmHg 95%
06:00 +11°C° 0 mm 1 mps 754 mmHg 92%
07:00 +12°C° 0 mm 1 mps 754 mmHg 90%
08:00 +13°C° 0 mm 1 mps 754 mmHg 88%
09:00 +15°C° 0 mm 1 mps 754 mmHg 81%
10:00 +16°C° 0 mm 1 mps 754 mmHg 74%
11:00 +19°C° 0 mm 1 mps 754 mmHg 67%
12:00 +20°C° 0 mm 1 mps 754 mmHg 64%
13:00 +21°C° 0 mm 1 mps 754 mmHg 60%
14:00 +21°C° 0 mm 1 mps 754 mmHg 56%
15:00 +21°C° 0 mm 1 mps 754 mmHg 59%
16:00 +20°C° 0 mm 1 mps 753 mmHg 62%
17:00 +20°C° 0 mm 1 mps 753 mmHg 64%
18:00 +19°C° 0 mm 1 mps 753 mmHg 68%
19:00 +16°C° 0 mm 1 mps 753 mmHg 72%
20:00 +15°C° 0 mm 1 mps 753 mmHg 75%
21:00 +14°C° 0 mm 1 mps 753 mmHg 78%
22:00 +13°C° 0 mm 1 mps 753 mmHg 80%
23:00 +12°C° 0 mm 2 mps 753 mmHg 83%

Tomorrow, 21 September, Monday

Time Temperature Precipitation Wind Pressure Humidity
00:00 +12°C° 0 mm 2 mps 753 mmHg 84%
01:00 +12°C° 0 mm 2 mps 753 mmHg 85%
02:00 +10°C° 0 mm 2 mps 753 mmHg 86%
03:00 +10°C° 0 mm 2 mps 753 mmHg 86%
04:00 +10°C° 0 mm 2 mps 753 mmHg 86%
05:00 +9°C° 0 mm 2 mps 753 mmHg 86%
06:00 +10°C° 0 mm 2 mps 753 mmHg 83%
07:00 +12°C° 0 mm 2 mps 753 mmHg 79%
08:00 +13°C° 0 mm 2 mps 753 mmHg 76%
09:00 +15°C° 0 mm 2 mps 753 mmHg 70%
10:00 +17°C° 0 mm 3 mps 753 mmHg 63%
11:00 +19°C° 0 mm 3 mps 753 mmHg 56%
12:00 +20°C° 0 mm 3 mps 752 mmHg 54%
13:00 +21°C° 0 mm 3 mps 752 mmHg 51%
14:00 +21°C° 0 mm 3 mps 752 mmHg 49%
15:00 +21°C° 0 mm 3 mps 751 mmHg 53%
16:00 +21°C° 0 mm 2 mps 751 mmHg 56%
17:00 +20°C° 0 mm 2 mps 751 mmHg 60%
18:00 +18°C° 0 mm 2 mps 751 mmHg 64%
19:00 +17°C° 0 mm 2 mps 751 mmHg 68%
20:00 +15°C° 0 mm 2 mps 751 mmHg 72%
21:00 +14°C° 0 mm 2 mps 751 mmHg 74%
22:00 +14°C° 0 mm 2 mps 751 mmHg 75%
23:00 +14°C° 0 mm 2 mps 751 mmHg 76%

Day after tomorrow, 22 September, Tuesday

Time Temperature Precipitation Wind Pressure Humidity
00:00 +13°C° 0 mm 2 mps 751 mmHg 78%
01:00 +13°C° 0 mm 2 mps 750 mmHg 80%
02:00 +13°C° 0 mm 2 mps 750 mmHg 82%
03:00 +12°C° 0 mm 2 mps 750 mmHg 83%
04:00 +12°C° 0 mm 2 mps 750 mmHg 85%
05:00 +12°C° 0 mm 2 mps 749 mmHg 86%
06:00 +13°C° 0 mm 2 mps 750 mmHg 83%
07:00 +14°C° 0 mm 2 mps 750 mmHg 80%
08:00 +15°C° 0 mm 2 mps 750 mmHg 77%
09:00 +17°C° 0 mm 2 mps 750 mmHg 70%
10:00 +19°C° 0 mm 2 mps 750 mmHg 63%
11:00 +21°C° 0 mm 3 mps 750 mmHg 56%
12:00 +22°C° 0 mm 3 mps 750 mmHg 54%
13:00 +24°C° 0 mm 3 mps 749 mmHg 51%
14:00 +25°C° 0 mm 3 mps 749 mmHg 48%
15:00 +24°C° 0 mm 3 mps 749 mmHg 52%
16:00 +24°C° 0 mm 2 mps 749 mmHg 56%
17:00 +23°C° 0 mm 2 mps 748 mmHg 60%
18:00 +20°C° 0 mm 2 mps 748 mmHg 65%
19:00 +19°C° 0 mm 2 mps 748 mmHg 69%
20:00 +17°C° 0 mm 2 mps 748 mmHg 73%
21:00 +16°C° 0 mm 2 mps 748 mmHg 76%
22:00 +16°C° 0 mm 2 mps 748 mmHg 78%
23:00 +15°C° 0 mm 2 mps 748 mmHg 80%

23 September, Wednesday

Time Temperature Precipitation Wind Pressure Humidity
00:00 +15°C° 0 mm 2 mps 748 mmHg 81%
01:00 +14°C° 0 mm 2 mps 748 mmHg 81%
02:00 +13°C° 0 mm 3 mps 747 mmHg 82%
03:00 +13°C° 0 mm 3 mps 747 mmHg 77%
04:00 +12°C° 0 mm 3 mps 747 mmHg 73%
05:00 +12°C° 0 mm 3 mps 747 mmHg 69%
06:00 +13°C° 0 mm 3 mps 747 mmHg 65%
07:00 +13°C° 0 mm 4 mps 747 mmHg 62%
08:00 +14°C° 0 mm 4 mps 747 mmHg 58%
09:00 +17°C° 0 mm 4 mps 746 mmHg 55%
10:00 +19°C° 0 mm 4 mps 746 mmHg 52%
11:00 +20°C° 0 mm 5 mps 746 mmHg 50%
12:00 +21°C° 0 mm 5 mps 746 mmHg 49%
13:00 +22°C° 0 mm 5 mps 746 mmHg 49%
14:00 +22°C° 0 mm 5 mps 745 mmHg 49%
15:00 +22°C° 0 mm 5 mps 745 mmHg 54%
16:00 +21°C° 0 mm 4 mps 745 mmHg 58%
17:00 +20°C° 0 mm 4 mps 744 mmHg 63%
18:00 +19°C° 0 mm 4 mps 744 mmHg 66%
19:00 +18°C° 0 mm 3 mps 744 mmHg 69%
20:00 +17°C° 0 mm 3 mps 744 mmHg 72%
21:00 +16°C° 0 mm 3 mps 744 mmHg 74%
22:00 +16°C° 0 mm 3 mps 744 mmHg 76%
23:00 +14°C° 0 mm 3 mps 744 mmHg 77%

24 September, Thursday

Time Temperature Precipitation Wind Pressure Humidity
00:00 +14°C° 0 mm 3 mps 744 mmHg 77%
01:00 +13°C° 0 mm 3 mps 744 mmHg 77%
02:00 +13°C° 0 mm 3 mps 744 mmHg 76%
03:00 +13°C° 0 mm 3 mps 744 mmHg 73%
04:00 +12°C° 0 mm 3 mps 743 mmHg 70%
05:00 +12°C° 0 mm 3 mps 743 mmHg 67%
06:00 +13°C° 0 mm 4 mps 743 mmHg 65%
07:00 +13°C° 0 mm 4 mps 743 mmHg 63%
08:00 +14°C° 0 mm 4 mps 743 mmHg 61%
09:00 +17°C° 0 mm 4 mps 743 mmHg 59%
10:00 +19°C° 0 mm 4 mps 743 mmHg 57%
11:00 +21°C° 0 mm 4 mps 743 mmHg 54%
12:00 +22°C° 0 mm 4 mps 743 mmHg 53%
13:00 +23°C° 0 mm 4 mps 743 mmHg 51%
14:00 +26°C° 0 mm 4 mps 743 mmHg 50%
15:00 +25°C° 0 mm 4 mps 743 mmHg 55%
16:00 +24°C° 0 mm 3 mps 743 mmHg 59%
17:00 +24°C° 0 mm 3 mps 743 mmHg 64%
18:00 +21°C° 0 mm 2 mps 743 mmHg 68%
19:00 +20°C° 0 mm 2 mps 743 mmHg 73%
20:00 +19°C° 0 mm 2 mps 743 mmHg 77%
21:00 +18°C° 0.1 mm 2 mps 743 mmHg 80%
22:00 +18°C° 0.1 mm 2 mps 743 mmHg 82%
23:00 +17°C° 0.1 mm 2 mps 743 mmHg 85%

25 September, Friday

Time Temperature Precipitation Wind Pressure Humidity
00:00 +17°C° 0.1 mm 2 mps 743 mmHg 86%
01:00 +16°C° 0.1 mm 2 mps 743 mmHg 88%
02:00 +16°C° 0.1 mm 2 mps 743 mmHg 89%
03:00 +16°C° 0 mm 2 mps 742 mmHg 90%
04:00 +16°C° 0 mm 2 mps 742 mmHg 91%
05:00 +16°C° 0 mm 3 mps 742 mmHg 92%
06:00 +16°C° 0 mm 3 mps 741 mmHg 89%
07:00 +17°C° 0 mm 4 mps 741 mmHg 86%
08:00 +17°C° 0 mm 4 mps 741 mmHg 83%
09:00 +19°C° 0 mm 5 mps 740 mmHg 75%
10:00 +21°C° 0 mm 6 mps 740 mmHg 68%
11:00 +22°C° 0 mm 6 mps 740 mmHg 60%
12:00 +23°C° 0 mm 6 mps 739 mmHg 56%
13:00 +24°C° 0 mm 7 mps 738 mmHg 52%
14:00 +26°C° 0 mm 7 mps 738 mmHg 48%
15:00 +24°C° 0 mm 6 mps 737 mmHg 52%
16:00 +23°C° 0 mm 5 mps 737 mmHg 56%
17:00 +23°C° 0 mm 4 mps 736 mmHg 60%
18:00 +22°C° 0.1 mm 5 mps 736 mmHg 61%
19:00 +21°C° 0.1 mm 5 mps 736 mmHg 63%
20:00 +20°C° 0.1 mm 5 mps 735 mmHg 64%
21:00 +19°C° 0.7 mm 4 mps 735 mmHg 74%
22:00 +18°C° 0.7 mm 3 mps 735 mmHg 83%
23:00 +17°C° 0.7 mm 2 mps 735 mmHg 92%
Show more